Weather in Stirling

United Kingdom     56°07′01″N   3°56′08″W
temp.,
°C
wind,
m/s
gust,
m/s
humid.,
%
clouds,
%
prec.,
mm/h
press.,
hPa
HPBL,
m
23 april, fri
fri2301:00+5ne1187100 0.0 102914
04:00+3ne1190100 0.0 102811
07:00+4ne118691 0.0 102925
10:00+11ese016246 0.0 1029412
13:00+15sse1237100 0.0 10281170
16:00+16se0135100 0.0 10271652
19:00+12e3562100 0.0 1028203
22:00+7ne3580100 0.0 1029144
24 april, sat
sat2401:00+6ne2484100 0.0 1030138
04:00+5ne2386100 0.0 103098
07:00+4ne25875 0.0 1031175
10:00+9ene45679 0.0 1031724
13:00+12ene445828 0.0 10301096
16:00+13ene435914 0.0 10301026
19:00+9e45715 0.0 1031458
22:00+5ne2490100 0.0 1032113
25 april, sun
sun2501:00+4ene1292100 0.0 103240
04:00+5ene1286100 0.0 103288
07:00+6e1183100 0.0 103197
10:00+9ese107060 0.0 1031419
13:00+14se01545 0.0 1029974
16:00+16s014677 0.0 10271667
19:00+12wsw2473100 0.3 1026305
22:00+9ssw1286100 0.1 102654
26 april, mon
mon2601:00+8sw2486100 0.1 1024136
04:00+7sw3687100 0.0 1022207
07:00+7sw3785100 0.0 1020300
10:00+8sw4986100 0.4 1017872
13:00+10wsw3574100 1.1 1014833
16:00+9nne378180 3.8 1014888
19:00+7ne5986100 4.4 10151067
22:00+6ne61186100 0.1 10171205
27 april, tue
tue2701:00+5ne61091100 0.8 10181193
04:00+4ne41194100 0.3 1019911
07:00+5ne498826 0.3 1019882
10:00+6ne586591 0.1 10201313
13:00+7ene3560100 0.1 10191182
16:00+8ne237086 0.2 10181028
19:00+5e3591100 0.8 1018605
22:00+4w019681 0.7 1018174